sat.trackr.live / text

‹ back to catalog

BEIDOU-2 G6 (C02)

NORAD 38953 · 2012-059A

PAYLOAD ACTIVE UNKNOWN

§ Identity

Operator
Country
PRC
Launch date
2012-10-25
Launch site
XICLF
Launch vehicle
Mass (kg)
RCS (m²)
2.51

Purposes: comms, nav

External: N2YO · Heavens-Above · Gunter

§ Orbital elements

Epoch: 2026-05-24T21:17:54.320928Z

Period
1,436.13 min
Inclination
4.3652°
Eccentricity
0.0010314
Mean motion
1.00269634 rev/d
Perigee alt
35,743.7 km
Apogee alt
35,830.7 km
Semi-major
42,165.3 km
B*
0.0000e+0
RAAN
73.7690°
Arg perigee
321.9338°
Mean anomaly
250.2757°
Rev number
4,967

§ Raw data

BEIDOU-2 G6 (C02)1 38953U 12059A   26144.88743427 -.00000177  00000+0  00000+0 0  99992 38953   4.3652  73.7690 0010314 321.9338 250.2757  1.00269634 49675

JSON: /api/v1/satellites/38953 · /tle

For live sub-satellite position, see the globe view (requires WebGL).

§ Visibility from observer

Set your observer location to see the next 7 days of passes ≥ 10°. The values pass through the URL so the page stays shareable.

No JS? Fill the form by hand. The geolocation button needs JavaScript.